Location: Tumbler Ridge
(55.1167°N, 121.0000°W)
Time: 02:48:43
(UTC-08:00)

Daily predictions for brighter satellites

Satellite Brightness Start Highest point End
(mag) Time Altitude Azimuth Time Altitude Azimuth Time Altitude Azimuth
ATLAS 2AS CENTAUR R/B 3.8 03:34:41 45° NNE 03:34:41 45° NNE 03:41:38 10° ENE
ADEOS Rocket 3.9 03:59:29 10° NNE 04:05:17 55° N 04:05:17 55° N
NOSS 3-1 (C) 4.1 04:08:25 64° NNE 04:08:38 64° NNE 04:16:33 10° ESE
USA 234 3.4 04:06:13 10° ESE 04:11:50 68° ESE 04:11:50 68° ESE
ADEOS II 3.6 04:12:01 10° NNE 04:14:46 31° NNE 04:14:46 31° NNE
Cosmos 2061 Rocket 4.3 04:18:01 63° ENE 04:18:01 63° ENE 04:23:42 10° NNE
Cosmos 2237 Rocket 4.3 04:31:30 16° SSE 04:31:30 16° SSE 04:32:33 10° SSE
Cosmos 1802 Rocket 4.2 04:26:34 62° SE 04:27:28 70° E 04:33:51 10° NNE
SL-16 R/B 2.7 04:30:41 56° ESE 04:30:41 56° ESE 04:35:12 10° SE
Cosmos 1459 Rocket 4.1 04:33:37 68° NNE 04:33:37 68° NNE 04:39:03 10° NNE
ATLAS CENTAUR R/B 3.5 04:37:00 23° NE 04:37:00 23° NE 04:38:41 10° NE
Cosmos 2297 Rocket 3.6 04:41:55 10° S 04:47:00 36° ESE 04:52:08 10° NE
SeaSat 1 2.8 04:43:28 10° NE 04:47:41 62° ENE 04:47:41 62° ENE
Cosmos 1486 Rocket 4.4 04:50:10 59° NNE 04:50:10 59° NNE 04:54:30 10° NNE
Cosmos-2242 4.0 04:50:53 46° ENE 04:50:53 46° ENE 04:54:42 10° NNE
Cosmos 1503 Rocket 4.3 04:55:46 51° SSE 04:56:46 62° ESE 05:01:54 10° NNE
Cosmos 2173 Rocket 3.9 04:57:55 69° NW 04:57:55 69° NW 05:03:45 10° N
Cosmos 2227 Rocket 2.8 04:56:03 26° S 04:59:02 53° ESE 05:04:34 10° NE
USA 229 DEB 3.8 05:03:49 55° SW 05:03:50 55° SW 05:10:48 10° SSE
USA 229 3.8 05:03:52 55° SW 05:03:56 55° SW 05:10:55 10° SSE
CZ-4B R/B 4.2 05:02:00 10° N 05:04:56 31° N 05:04:56 31° N
Cosmos 2082 Rocket 4.1 05:09:01 16° N 05:09:31 16° N 05:13:04 10° NE
Cosmos 1943 4.3 05:10:56 24° NNW 05:13:55 41° NE 05:19:18 10° ESE
NOSS 3-4 (A) 4.2 05:12:45 38° NNW 05:14:05 42° N 05:20:39 10° ENE
NOSS 3-4 (C) 4.2 05:12:51 38° NNW 05:14:11 43° N 05:20:45 10° ENE
Cosmos 2016 Rocket 3.8 05:11:48 37° SSW 05:14:23 72° WNW 05:20:45 10° N
NOSS 3-1 (A) 3.9 05:14:39 42° NW 05:17:34 89° NE 05:25:43 10° SE
Cosmos 1626 4.5 05:14:37 10° NNE 05:17:34 23° ENE 05:20:36 10° ESE
COSMO-SKYMED 1 4.2 05:15:39 10° S 05:17:20 23° S 05:17:20 23° S
Cosmos 1733 3.7 05:19:45 57° ESE 05:20:04 60° E 05:23:53 10° NNE
Cosmos 2233 Rocket 4.3 05:15:29 10° S 05:21:39 67° E 05:27:55 10° NNE
Cosmos 2058 3.7 05:20:02 25° N 05:22:07 50° ENE 05:26:08 10° SSE
Cosmos 1470 3.1 05:22:55 61° NE 05:22:55 61° NE 05:26:20 10° NNE
Cosmos 1328 4.0 05:26:07 61° SSE 05:26:07 61° SSE 05:29:27 10° SSE
ATLAS 2AS CENTAUR R/B 3.4 05:22:07 30° NW 05:26:19 59° NNE 05:34:09 10° ESE
Cosmos 2082 3.9 05:22:04 18° SSW 05:26:28 72° ESE 05:32:12 10° NE
ISS -0.7 05:28:35 14° SSE 05:28:35 14° SSE 05:29:21 10° SSE
Okean-O 3.6 05:25:54 10° N 05:28:34 34° N 05:28:34 34° N
Cosmos 1816 Rocket 4.4 05:24:25 10° NNW 05:30:41 62° W 05:36:53 10° S
Cosmos 1500 Rocket 3.4 05:31:10 75° WSW 05:31:10 75° WSW 05:35:30 10° S
Cosmos 1538 Rocket 3.9 05:31:00 43° NW 05:32:50 79° WSW 05:38:13 10° SSE
Cosmos 1603 3.7 05:30:38 34° NNW 05:33:14 82° NE 05:38:53 10° SE
Cosmos 2151 2.9 05:33:17 41° N 05:34:42 83° ENE 05:38:56 10° SSE
ERBS 3.7 05:36:35 31° SSE 05:36:35 31° SSE 05:38:45 10° SE
Cosmos 2100 Rocket 4.4 05:36:33 39° NW 05:36:33 39° NW 05:41:48 10° N
Tsikada Rocket 4.2 05:32:05 10° NNW 05:38:12 48° W 05:44:15 10° SSW
Cosmos 1354 Rocket 3.9 05:37:44 42° SW 05:39:28 69° WNW 05:44:44 10° NNE
Cosmos 2219 3.6 05:39:19 42° WNW 05:39:47 43° NW 05:45:17 10° NNE
Cosmos 923 Rocket 4.3 05:36:59 23° NNW 05:40:18 67° ENE 05:45:31 10° SE
Cosmos 304 Rocket 4.0 05:43:52 46° WSW 05:43:52 46° WSW 05:48:07 10° S
Cosmos 2346 Rocket 4.4 05:40:11 10° NNW 05:46:18 64° W 05:52:19 10° S
Helios 1B rocket 3.6 05:42:38 10° SE 05:46:31 42° ENE 05:50:26 10° N
Ariane Rocket 3.4 05:42:45 10° NNE 05:47:51 66° ESE 05:52:56 10° S
Cosmos 1356 Rocket 4.1 05:44:44 14° N 05:48:08 52° ENE 05:52:10 10° SSE
Cosmos 1818 3.5 05:46:04 34° SW 05:48:33 80° NW 05:54:04 10° NE
Cosmos 1680 Rocket 3.9 05:46:02 18° NNW 05:50:00 64° ENE 05:55:17 10° SE
ADEOS Rocket 4.4 05:45:36 10° N 05:51:35 27° NW 05:52:16 26° NW
Cosmos 1633 Rocket 4.4 05:47:39 10° N 05:51:48 40° ENE 05:55:54 10° SE
Sich 1 4.1 05:48:09 10° N 05:52:25 44° ENE 05:56:35 10° SE
USA 234 3.6 05:50:01 10° SE 05:56:17 46° SW 05:59:11 30° W
ADEOS II 3.1 05:52:14 10° N 05:55:43 27° NW 05:55:43 27° NW
Feng Yun 1-1 Rocket 4.4 05:53:34 10° N 05:58:43 46° WNW 06:02:01 21° SW
Genesis I 3.3 05:58:22 52° W 05:58:48 56° SW 06:02:40 10° SSE
NOSS 3-1 (C) 4.1 05:55:50 29° WNW 05:59:43 57° SW 06:07:39 10° SSE
Cosmos 1703 3.4 05:56:46 14° N 06:00:09 71° ENE 06:04:04 10° SSE
CSL-04 Rocket 3.8 06:00:18 10° NNE 06:05:41 76° ESE 06:10:59 10° SSW
SL-24 R/B 4.3 06:01:49 10° N 06:06:12 60° WNW 06:11:09 10° SSW
Cosmos 1340 Rocket 2.7 06:05:30 31° NNW 06:07:12 62° W 06:11:05 10° S
YAOGAN 1 4.3 06:04:03 10° NNE 06:08:03 35° E 06:12:01 10° SSE
Cosmos 1464 Rocket 4.3 06:02:59 10° S 06:09:16 70° E 06:15:31 10° NNE
SL-16 R/B 3.1 06:12:36 27° W 06:13:12 27° WSW 06:17:53 10° SSW
ATLAS CENTAUR R/B 2.7 06:13:18 25° NW 06:14:07 26° NNW 06:17:42 10° NE
Cosmos 1725 Rocket 4.3 06:09:36 10° SW 06:15:31 43° WNW 06:21:32 10° N
NOAA 6 4.3 06:11:05 10° N 06:16:02 46° WNW 06:20:58 10° SW
PAYLOAD A 4.2 06:11:09 10° NNE 06:16:21 74° ESE 06:21:19 10° S
Meteor 1-11 4.4 06:14:28 10° NNW 06:20:06 51° W 06:25:42 10° S
Cosmos 1666 Rocket 3.6 06:16:48 10° N 06:21:16 83° ENE 06:25:44 10° SSE
SL-14 R/B 3.9 06:21:13 30° WNW 06:22:13 35° W 06:25:55 10° SSW
Cosmos 2112 Rocket 4.0 06:19:11 13° NNW 06:24:01 88° WSW 06:29:23 10° SSE
SeaSat 1 3.3 06:21:21 10° NNE 06:25:39 31° NW 06:27:29 24° WNW
CZ-4 R/B 1.7 06:23:27 10° NNE 06:27:28 69° ESE 06:31:31 10° S
Cosmos 1072 Rocket 4.4 06:21:54 10° S 06:28:05 86° W 06:34:16 10° N
CZ-2C R/B 2.7 06:23:31 10° NNE 06:28:10 65° ESE 06:32:43 10° S
Cosmos-2242 4.0 06:27:50 26° WNW 06:28:16 26° WNW 06:32:01 10° N
Coronas F rocket 1.4 06:27:50 21° N 06:29:16 63° ENE 06:31:40 10° SSE
Cosmos 1271 Rocket 2.5 06:25:43 10° SSW 06:29:32 80° WNW 06:33:21 10° NNE
Cosmos 2297 Rocket 2.3 06:25:17 10° SW 06:30:53 58° NW 06:36:30 10° NNE
Cosmos 968 Rocket 3.4 06:26:41 10° SSW 06:31:58 83° WNW 06:37:18 10° NNE
Cosmos 773 Rocket 4.4 06:28:31 18° NW 06:32:01 42° WSW 06:36:59 10° S
Meteor 2-12 Rocket 4.4 06:29:48 10° SSW 06:35:58 85° W 06:42:12 10° NNE
AQUARIUS 4.5 06:33:02 10° NNE 06:37:34 71° ESE 06:42:03 10° S
Cosmos 292 Rocket 3.9 06:35:12 15° NW 06:38:58 54° WSW 06:43:38 10° S
SPOT 3 Rocket 4.2 06:34:21 10° NNE 06:39:31 61° ESE 06:44:40 10° S
Cosmos 2221 2.4 06:36:22 10° SSW 06:40:42 76° WNW 06:45:03 10° N
Meteor 1-16 Rocket 4.1 06:37:06 10° SSW 06:42:26 58° WNW 06:47:42 10° N
Cosmos 2227 Rocket 2.6 06:37:57 10° WSW 06:43:19 42° NW 06:48:42 10° NNE
Cosmos 1184 Rocket 3.1 06:46:50 13° NNW 06:49:37 46° W 06:52:49 10° S
SMAP 3.1 06:45:05 10° NNE 06:49:48 87° ESE 06:54:28 10° SSW
Meteor 1-4 Rocket 3.4 06:46:59 10° SW 06:50:20 30° WNW 06:53:46 10° N
IDEFIX/ARIANE 42P 2.6 06:45:17 10° NNE 06:50:36 87° WNW 06:55:53 10° SSW
Cosmos 1626 2.5 06:49:35 10° NNW 06:53:09 41° W 06:56:41 10° SSW
Cosmos 1470 Rocket 3.7 06:49:12 10° N 06:53:34 77° ENE 06:57:53 10° SSE
Cosmos 2228 Rocket 4.0 06:49:22 10° S 06:53:40 52° E 06:57:58 10° NNE
Meteor 2-1 Rocket 4.2 06:49:58 10° SSW 06:55:35 69° WNW 07:01:22 10° N
Cosmos 2082 Rocket 4.0 06:51:33 10° NNW 06:55:50 21° NNE 07:00:07 10° ENE
Cosmos 1842 Rocket 4.4 06:54:13 10° WSW 06:57:56 27° WNW 07:01:41 10° N
Cosmos 1943 3.4 06:52:45 11° NW 06:58:13 56° WSW 07:03:47 10° SSE
Cosmos 2058 4.1 06:56:18 13° NW 06:58:47 22° W 07:01:57 10° SW
Cosmos 1470 4.3 06:58:26 16° WNW 06:59:03 16° WNW 07:01:35 10° NNW
Cosmos 1777 Rocket 4.0 06:53:57 10° SSW 06:59:11 87° WNW 07:04:27 10° NNE
Cosmos 1805 Rocket 4.2 06:56:40 10° NNW 07:00:41 34° W 07:04:40 10° SSW
MSX 4.0 06:55:45 10° NNE 07:01:33 78° ESE 07:07:20 10° SSW
Alouette 2 Rocket 3.5 07:00:58 10° NNW 07:04:51 67° ENE 07:08:24 10° SSE
COSMOS 2406 3.8 06:59:30 10° NNW 07:05:12 56° NE 07:10:53 10° SE
Okean-O 4.4 07:04:08 10° NNW 07:05:53 12° NW 07:06:10 12° NW
NOSS 3-4 (A) 4.2 07:00:11 12° NW 07:06:16 52° NNE 07:13:14 10° E
NOSS 3-4 (C) 4.2 07:00:17 12° NW 07:06:22 52° NNE 07:13:19 10° E
Cosmos 1833 Rocket 4.4 07:05:19 10° NNW 07:09:36 21° NNE 07:13:52 10° ENE
ATLAS CENTAUR R/B 3.0 07:07:07 13° WNW 07:10:35 80° NNE 07:21:45 10° ESE
Cosmos 2082 4.4 07:05:52 10° WSW 07:11:05 34° NW 07:16:20 10° NNE
CSL-04 Debris 4.5 07:08:31 10° N 07:13:44 45° WNW 07:18:55 10° SW
Meteor 1-29 3.8 07:11:27 10° SSW 07:14:40 33° W 07:17:54 10° NNW
Cosmos 1908 3.1 07:12:12 10° SSW 07:16:02 81° WNW 07:19:54 10° N
ATLAS 2AS CENTAUR R/B 3.2 07:09:39 10° NW 07:17:47 70° SW 07:25:28 10° SSE
CORIOLIS 4.1 07:14:56 10° NNE 07:20:20 73° WNW 07:25:44 10° SSW
Resurs 01 Rocket 4.3 07:17:30 10° NE 07:21:02 23° E 07:24:32 10° SE
Helios 1B rocket 3.4 07:18:27 10° SSW 07:22:00 27° W 07:25:34 10° NW
Cosmos 2034 Rocket 4.1 07:16:28 10° SSW 07:22:32 56° WNW 07:28:44 10° N
Meteor 2-3 Rocket 4.3 07:20:17 10° N 07:26:06 66° ENE 07:31:53 10° SSE
Ariane Rocket 3.9 07:22:13 10° N 07:26:29 27° NW 07:30:44 10° WSW
Nadezhda 4 Rocket 4.4 07:20:53 10° NNW 07:26:50 44° W 07:32:44 10° SSW
Cosmos 1633 Rocket 3.9 07:25:41 10° NNW 07:29:30 30° W 07:33:18 10° SSW
Sich 1 4.0 07:26:13 10° NNW 07:29:56 27° W 07:33:36 10° SW
Cosmos 389 Rocket 2.5 07:26:45 10° SSW 07:30:24 66° WNW 07:34:05 10° N
Cosmos 2026 Rocket 4.0 07:25:34 10° NNW 07:31:40 80° W 07:37:43 10° S
Cosmos 1818 4.3 07:27:49 10° W 07:32:50 35° NNW 07:37:52 10° NE
MOS 1 4.4 07:29:39 10° NNE 07:35:16 60° WNW 07:40:52 10° SW
Cosmos 2263 Rocket 3.1 07:29:45 10° SSW 07:35:17 56° ESE 07:40:52 10° NE
Cosmos 1892 3.7 07:32:45 10° N 07:36:28 47° ENE 07:40:10 10° SSE
COS B Rocket 3.7 07:35:58 10° N 07:39:33 58° E 07:43:00 10° SSE
Cosmos 1092 Rocket 4.4 07:35:43 10° NNW 07:41:42 46° W 07:47:36 10° SSW
